Samuel Collins

Olheiro - Blackpool
23 Abr 2028
Domingo
Processo

Personalidade

Adaptabilidade (4) Ambição (6) Controvérsia (13) Lealdade (20) Pressão (16) Profissionalismo (9) Espírito Esportivo (3) Temperamento (15)

Perfil

Estilo de Treinamento Democrático
Licença Continental A
Determinação 10
Gestão de Pessoas 12
Motivação 8
Disciplina 8
Satisfação no Trabalho
66%
Fadiga
0%
Função Olheiro
Salário 19.4K p/s
Contrato 14.03.2029

Desempenho

Comportamento Bom
Eficácia do Treinamento
28%
Desenvolvimento do Jogador
50%
Prevenção de Lesões
45%
Implementação Tática
40%

Eventos Recentes

Participou de uma reunião de recrutamento agora
Recomendou um alvo de transferência agora
Participou de uma reunião de recrutamento 7d atrás
Recomendou um alvo de transferência 7d atrás
Recomendou um alvo de transferência 7d atrás
Participou de uma reunião de recrutamento 7d atrás
Recomendou um alvo de transferência 14d atrás
Participou de uma reunião de recrutamento 14d atrás

Monitorando agora

101
Jogador Clube Status Habilidade Confiança Observado Última observação Último voto
Josh Benson Rotherham United Ativo 104 / 111 76% 1 02.08.2027 Aprovar
Tony Springett Cheltenham Town Ativo 110 / 118 76% 1 26.07.2027 Aprovar
Dennis Cirkin Queens Park Rangers Ativo 127 / 115 40% 4 27.05.2027 -
Jacques Ekomié Wrexham Ativo 127 / 143 40% 1 27.05.2027 -
Welington Southampton Ativo 135 / 143 40% 1 27.05.2027 -
Tyrese Campbell Sheffield United Ativo 128 / 133 40% 3 21.05.2027 -
Abu Kamara Portsmouth Ativo 117 / 132 40% 1 21.05.2027 -
Malik Mothersille Stockport County Ativo 112 / 118 40% 8 18.05.2027 -
Jack Rudoni Coventry City Ativo 133 / 144 40% 3 18.05.2027 -
Milan van Ewijk Coventry City Ativo 125 / 118 40% 3 18.05.2027 -
Andre Brooks Sheffield United Ativo 126 / 123 40% 3 17.05.2027 -
Samuel Edozie Southampton Ativo 136 / 136 40% 2 17.05.2027 -
Max Johnston Derby County Ativo 134 / 113 40% 4 10.05.2027 -
Oswin Appollis Orlando Pirates Ativo 119 / 141 40% 5 08.05.2027 -
Bobby Clark Derby County Ativo 116 / 131 40% 1 08.05.2027 -
Jason Knight Bristol City Ativo 125 / 132 40% 2 07.05.2027 -
Antonio Galeano Remo Stars Ativo 134 / 133 40% 1 07.05.2027 -
Shea Charles Southampton Ativo 137 / 130 40% 2 05.05.2027 -
Lewis Bate Stockport County Ativo 123 / 120 40% 1 05.05.2027 -
Bongani Zungu Ajax Cape Town Ativo 138 / 139 40% 6 04.05.2027 -
Derensili Sanches Fernandes Huddersfield Town Ativo 125 / 122 40% 1 29.04.2027 Mais informações
Scott Twine Bristol City Ativo 124 / 111 40% 1 27.04.2027 -
Ali Ahmed Norwich City Ativo 130 / 114 40% 2 23.04.2027 -
Jack Currie Oxford United Ativo 121 / 111 40% 1 23.04.2027 -
Isaiah Jones Luton Town Ativo 126 / 123 40% 4 22.04.2027 -
Francis Gomez Cardiff City Ativo 99 / 117 40% 1 22.04.2027 -
Martim Cunha Porto Ativo 97 / 114 40% 1 22.04.2027 -
Charlie Gray Fleetwood Town Ativo 84 / 103 40% 1 22.04.2027 -
Kwadwo Baah Watford Ativo 129 / 138 40% 4 21.04.2027 -
Daniel Kyerewaa Reading Ativo 117 / 114 40% 3 21.04.2027 -
Pelle Mattsson Norwich City Ativo 126 / 131 40% 1 21.04.2027 -
Sascha Britschgi AC Milan Ativo 115 / 130 40% 2 19.04.2027 -
Caleb Yirenkyi Coventry City Ativo 141 / 126 40% 1 19.04.2027 -
Cian Ashford Cardiff City Ativo 125 / 125 40% 2 18.04.2027 -
Declan Frith Peterborough United Ativo 115 / 109 40% 1 16.04.2027 -
Toby Collyer West Bromwich Albion Ativo 131 / 139 40% 1 16.04.2027 -
Martin Baturina Como Ativo 141 / 152 40% 1 15.04.2027 -
Koki Saito Queens Park Rangers Ativo 133 / 135 40% 1 15.04.2027 -
Kamaldeen Atiemo Wa All Stars Ativo 104 / 99 40% 1 13.04.2027 -
Chari Giwa US Bougouni Ativo 75 / 72 40% 1 13.04.2027 -
Jake Batty Plymouth Argyle Ativo 105 / 113 40% 1 13.04.2027 -
Bradley Zwane SuperSport United Ativo 111 / 111 40% 3 11.04.2027 -
Mohammed Essien Hasaacas Ativo 111 / 96 40% 2 11.04.2027 -
Samuele di Benedetto Twente Ativo 110 / 128 40% 1 11.04.2027 -
Pietro Reggiori Pro Patria Ativo 90 / 105 40% 1 11.04.2027 -
Lucan Louw US Bougouni Ativo 71 / 95 40% 1 08.04.2027 -
Riley Owen Stevenage Ativo 95 / 108 40% 1 08.04.2027 -
Sam Greenwood Bristol City Ativo 124 / 107 40% 4 07.04.2027 -
Wandile Duba ASO Chlef Ativo 107 / 116 40% 1 01.04.2027 -
Rocco Vata Watford Ativo 122 / 124 40% 1 01.04.2027 -
Brooke Norton-Cuffy Hull City Ativo 137 / 142 40% 2 27.03.2027 -
Marcelo Allende Mamelodi Sundowns Ativo 129 / 142 40% 4 23.03.2027 -
David Turnbull Cardiff City Ativo 119 / 110 40% 1 22.03.2027 -
John Mercado Sparta Prague Ativo 135 / 123 40% 1 20.03.2027 -
Dylan Levitt Leyton Orient Ativo 115 / 122 40% 1 19.03.2027 -
Tyler Goodrham Oxford United Ativo 121 / 127 40% 1 12.03.2027 -
Themba Williams Ajax Cape Town Ativo 115 / 113 40% 2 11.03.2027 -
Ronaldo Maarman University of Pretoria Ativo 100 / 113 40% 1 11.03.2027 -
Alex Lowry Wycombe Wanderers Ativo 114 / 106 40% 1 02.03.2027 -
Mandla Kekana Ajax Cape Town Ativo 118 / 125 40% 1 02.03.2027 -
Thalente Mbatha Orlando Pirates Ativo 107 / 108 40% 1 01.03.2027 -
Mathias Kvistgaarden Norwich City Ativo 116 / 121 40% 1 02.01.2027 -
Patrick Agyemang Derby County Ativo 129 / 112 40% 1 02.01.2027 -
Richard Koné Queens Park Rangers Ativo 114 / 135 40% 1 02.01.2027 -
Teboho Zwane Ajax Cape Town Ativo 97 / 123 40% 1 31.12.2026 -
Ousseynou Seck Randers Ativo 113 / 103 40% 1 31.12.2026 -
Kévin Denkey FC Cincinnati Ativo 121 / 109 40% 2 29.12.2026 -
Jack McGlynn Stoke City Ativo 136 / 131 40% 1 26.12.2026 -
Dejan Joveljić Seattle Sounders Ativo 137 / 112 40% 2 25.12.2026 -
Sam Bell Bristol City Ativo 126 / 133 40% 1 25.12.2026 -
Matej Trusa DAC Dunajska Streda Ativo 104 / 107 40% 2 23.12.2026 -
Cameron Archer Southampton Ativo 124 / 123 40% 2 18.12.2026 -
Ilyas Ansah Hull City Ativo 132 / 149 40% 2 18.12.2026 -
Etiosa Ighodaro Kaizer Chiefs Ativo 109 / 111 40% 2 15.12.2026 -
Goodman Mosele Chippa United Ativo 98 / 105 40% 2 13.12.2026 -
Brooklyn Poggenpoel Maritzburg United Ativo 109 / 100 40% 1 12.12.2026 -
Lebogang Manyama SuperSport United Ativo 107 / 131 40% 2 09.12.2026 -
Ammar Ramadan DAC Dunajska Streda Ativo 121 / 101 40% 1 08.12.2026 -
Mikey Johnston West Bromwich Albion Ativo 117 / 117 40% 1 08.12.2026 -
Talles Magno New York City Ativo 125 / 124 40% 3 06.12.2026 -
Aune Heggebø West Bromwich Albion Ativo 121 / 138 40% 1 06.12.2026 -
Wessam Abou Ali Columbus Crew Ativo 125 / 109 40% 3 04.12.2026 -
Josh Coburn Millwall Ativo 116 / 119 40% 1 03.12.2026 -
Tadeo Allende Inter Miami CF Ativo 135 / 100 40% 3 02.12.2026 -
Peter Valjent FK Senica Ativo 114 / 122 40% 1 27.11.2026 -
Erick Dolly Black Aces Ativo 104 / 127 40% 2 26.11.2026 -
Tyrhys Dolan Espanyol Ativo 141 / 148 40% 1 25.11.2026 -
Finn Azaz Southampton Ativo 129 / 139 40% 1 24.11.2026 -
Ayoub Jabbari FC Cincinnati Ativo 111 / 122 40% 1 22.11.2026 -
Evidence Makgopa Orlando Pirates Ativo 117 / 112 40% 2 21.11.2026 -
Duncan McGuire Houston Dynamo Ativo 137 / 116 40% 1 21.11.2026 -
Martín Ojeda Orlando City Ativo 130 / 115 40% 1 19.11.2026 -
Agustín Anello Philadelphia Union Ativo 127 / 115 40% 2 17.11.2026 -
Indiana Vassilev Philadelphia Union Ativo 111 / 108 40% 1 17.11.2026 -
Joe Gelhardt Hull City Ativo 125 / 132 40% 2 15.11.2026 -
Jesus Ferreira Seattle Sounders Ativo 116 / 149 40% 1 13.11.2026 -
Yousef Salech Cardiff City Ativo 119 / 108 40% 1 11.11.2026 -
Adu Ares Eibar Ativo 128 / 110 40% 1 07.11.2026 -
Bénie Traoré New York City Ativo 131 / 104 40% 1 04.11.2026 -
David Da Costa Portland Timbers Ativo 123 / 125 40% 1 03.11.2026 -
Amin Boudri Los Angeles Football Club Ativo 122 / 147 40% 1 02.11.2026 -